Find Starlink 31726

NORAD ID: 59739 Int'l Des: 2024-090 Owner: SPXS Country: US Constellation: starlink operational
LEOCIRCULAR

Current View

Loading 3D Globe...

About Starlink 31726

Starlink 31726 (NORAD 59739) is a starlink constellation satellite (v2 mini) launched May 13, 2024 by SPXS of US. It operates in LEO, CIRCULAR orbit with a mass of 730.00 kg.

Upcoming Passes

Passes for default location (London). Set your location on the main map for personalized predictions.

Altitude History

Loading altitude history...

Two-Line Element Set

1 59739U 24090K 26263.01775749 .00000890 00000-0 41869-4 0 9996
2 59739 43.0012 165.7259 0000985 266.0182 94.0557 15.27577858133166
Epoch: Sep 20, 2026 • Age: 31 hours

Current Status

Altitude 494.1 km
Apogee / Perigee N/A
Velocity 7.62 km/s
Sub-Earth Point -39.07°S, 14.54°W
Launch Date May 13, 2024
Age 2.3 years
Type internet

Technical Details

Classification Payload
Mass 730.00 kg
Dry Mass 700.00 kg
Length 0.30 m
Span 29.00 m
Shape ? Box + pan
Manufacturer SPXS
Bus Type Starlink V2M
Phase Status In Orbit
Owner/State SPXS/US

Most Searched